Airfield :
LOGIN :

Register | Disclaimer

   EN    FR    IT 

 










Legend :    VFR   Marginal VFR   IFR   Intensive IFR   Very Intensive IFR
Visi :
Ceiling :
>= 8 km
>= 3000ft
5 to 8 km
1000 to 3000 ft
1500m to 5 km
500 to 1000 ft
800 to 1500m
200 to 500 ft
< 800m
< 200 ft
Symbols :   Thunderstorms  Fog  Heavy snow  Heavy precipitations  Wind > 20 kt
SIGMETs :     Misc.  Thunderstorms  Icing  Turbulence  Mountain Waves  Volcanic Ashes







- Airport Elevation : 17 ft
- IATA code : STA


EKVJ - Stauning

CURRENT METAR :
  • 220900Z 22012KT 7000 SCT009 BKN012 10/10 Q0995

EXPIRED METARs :
  • 220850Z 23012KT 7000 FEW030 BKN200 10/10 Q0995
  • 220831Z 22012KT 6000 SCT025 BKN180 10/10 Q0995
  • 220811Z 22012KT 5000 FEW006 SCT015 BKN050 10/10 Q0995
  • 220750Z 21012KT 5000 -DZ BKN006 10/10 Q0995
  • 220720Z 23012KT 6000 FEW006 BKN010 BKN050 10/10 Q0995

TAF TAF EKVJ
Valid from the 22 at 09:00 until the 22 at 16:00 UTC


220859Z 2209/2216 23015KT 6000 BKN015
TEMPO 2209/2215 4000 RADZ BKN005
No reported NOTAMs for that airfield.



MET'MAP, your aeronautical weather chart ! - Copyright ORBIFLY December 2007 - Disclaimer

ORBIFLY MET'MAP TEAM :

Programming & Development : Alexandra Zaïnal
Concept & Development : Baudouin d'Aumeries
Co-Development & Prog : Marc-Olivier Méhu
Technical & hardware support : Manuel Goepfert

Contact : metmap@orbifly.com




SOURCES & CREDITS :

   NOAA